Le nostre stazioni meteo in Italia

Pubblicità
Il mio iltempo24.it
Lamezia Terme, Italia (16362): Temperatura & dewpoint: 08.11.2019 22:00:00 - 14.11.2019 22:00:00 (CET)Lamezia Terme, Italia (16362): velocità del vento: 08.11.2019 22:00:00 - 14.11.2019 22:00:00 (CET)Lamezia Terme, Italia (16362): direzione del vento: 08.11.2019 22:00:00 - 14.11.2019 22:00:00 (CET)Lamezia Terme, Italia (16362): reduced air pressure: 08.11.2019 22:00:00 - 14.11.2019 22:00:00 (CET)Lamezia Terme, Italia (16362): visibility: 08.11.2019 22:00:00 - 14.11.2019 22:00:00 (CET)Lamezia Terme, Italia (16362): precipitazioni: 08.11.2019 22:00:00 - 14.11.2019 22:00:00 (CET)
Data & Tempo tt [°C] td [°C] ff [km/h] ff [kn] dd ppp [hPa] vv [km] rr [mm]
14.11.2019 22:00:00 12,4 11,0 15 8 NE 1010,9 10 0,0
14.11.2019 21:00:00 13,0 11,0 13 7 NE - 10 -
14.11.2019 20:00:00 13,0 11,0 15 8 ENE - 10 -
14.11.2019 19:00:00 13,6 11,5 15 8 ENE 1009,7 10 -
14.11.2019 18:00:00 15,0 12,0 16 9 ENE - 10 -
14.11.2019 17:00:00 16,0 12,0 21 11 ENE - 10 -
14.11.2019 16:00:00 17,8 10,6 16 9 ENE 1008,7 10 0,0
14.11.2019 15:00:00 19,0 10,0 22 12 E - 10 -
14.11.2019 14:00:00 19,0 11,0 18 10 E - 10 -
14.11.2019 13:00:00 19,7 9,3 15 8 E 1008,6 20 -
14.11.2019 12:00:00 19,0 10,0 21 11 E - 10 -
14.11.2019 11:00:00 18,0 10,0 18 10 ENE - 10 -
14.11.2019 10:00:00 17,2 12,0 13 7 NE 1009,8 15 0,0
14.11.2019 09:00:00 14,0 12,0 9 5 NE - 10 -
14.11.2019 08:00:00 11,0 10,0 8 4 ENE - 10 -
14.11.2019 07:00:00 10,9 9,9 11 6 ENE 1009,4 10 -
14.11.2019 06:00:00 10,0 9,0 11 6 ENE - 10 -
14.11.2019 05:00:00 10,0 10,0 11 6 ENE - 10 -
14.11.2019 04:00:00 8,2 8,1 11 6 E 1009,1 10 0,0
14.11.2019 03:00:00 8,0 8,0 9 5 ENE - 10 -
14.11.2019 02:00:00 8,0 8,0 9 5 E - 10 -
14.11.2019 01:00:00 9,1 9,0 9 5 E 1009,6 10 -
14.11.2019 00:00:00 10,0 9,0 9 5 ENE - 10 -
13.11.2019 23:00:00 10,0 10,0 9 5 E - 10 -
13.11.2019 22:00:00 10,6 10,2 8 4 ENE 1010,0 10 0,0
13.11.2019 21:00:00 13,0 12,0 9 5 ESE - 10 -
13.11.2019 20:00:00 13,0 11,0 2 1 - - 8 -
13.11.2019 19:00:00 13,9 11,2 8 4 ONO 1008,5 6 -
13.11.2019 18:00:00 16,0 12,0 16 9 ONO - 6 -
13.11.2019 17:00:00 16,0 14,0 21 11 O - 6 -
13.11.2019 16:00:00 15,2 13,8 9 5 O 1007,0 5 0,0
13.11.2019 15:00:00 15,0 14,0 18 10 SO - 5 -
13.11.2019 14:00:00 16,0 15,0 13 7 ONO - 5 -
13.11.2019 13:00:00 15,8 14,5 16 9 O 1005,9 5 -
13.11.2019 12:00:00 16,0 14,0 16 9 ONO - 4,0 -
13.11.2019 11:00:00 16,0 15,0 18 10 SO - 7 -
13.11.2019 10:00:00 15,2 14,6 24 13 SO 1005,0 0,6 0,0
13.11.2019 09:00:00 16,0 14,0 29 16 SO - 6 -
13.11.2019 08:00:00 16,0 15,0 26 14 O - 7 -
13.11.2019 07:00:00 16,3 14,2 16 9 SO 1001,0 7 -
13.11.2019 06:00:00 17,0 13,0 11 6 SSO - 10 -
13.11.2019 05:00:00 18,0 12,0 18 10 SSO - 10 -
13.11.2019 04:00:00 15,8 13,2 2 1 N 998,2 10 0,0
13.11.2019 03:00:00 16,0 12,0 9 5 E - 10 -
13.11.2019 02:00:00 16,0 12,0 15 8 ENE - 10 -
13.11.2019 01:00:00 16,0 12,0 21 11 ENE - 10 -
13.11.2019 00:00:00 16,0 11,0 31 17 ENE - 10 -
12.11.2019 23:00:00 16,0 11,0 24 13 E - 10 -
12.11.2019 22:00:00 15,6 10,8 18 10 ENE 998,1 10 0,0
12.11.2019 21:00:00 16,0 11,0 24 13 ENE - 10 -
12.11.2019 20:00:00 17,0 10,0 26 14 NNE - 10 -
12.11.2019 19:00:00 16,4 9,0 31 17 NE 998,1 10 -
12.11.2019 18:00:00 17,0 10,0 24 13 NNE - 10 -
12.11.2019 17:00:00 17,0 9,0 18 10 - - 10 -
12.11.2019 16:00:00 17,9 7,8 22 12 E 997,5 10 0,0
12.11.2019 15:00:00 19,0 8,0 34 18 ESE - 10 -
12.11.2019 14:00:00 20,0 9,0 24 13 SSE - 10 -
12.11.2019 13:00:00 18,8 9,8 18 10 SSE 998,3 10 -
12.11.2019 12:00:00 18,0 11,0 18 10 SE - 10 -
12.11.2019 11:00:00 18,0 15,0 31 17 ENE - 10 -
12.11.2019 10:00:00 18,1 13,9 37 20 ENE 997,3 10 0,0
12.11.2019 09:00:00 16,0 16,0 13 7 E - 10 -
12.11.2019 08:00:00 16,0 16,0 4 2 - - 10 -
12.11.2019 07:00:00 18,0 16,7 31 17 ENE 992,9 8 -
12.11.2019 06:00:00 16,0 16,0 24 13 ENE - 6 -
12.11.2019 05:00:00 16,0 15,0 21 11 E - 2,0 -
12.11.2019 04:00:00 16,5 15,7 22 12 NE 999,8 5 0,0
12.11.2019 03:00:00 17,0 15,0 34 18 ENE - 5 -
12.11.2019 02:00:00 17,0 15,0 41 22 ENE - 4,0 -
12.11.2019 01:00:00 16,7 15,5 29 16 NE 1001,5 4,0 -
12.11.2019 00:00:00 17,0 16,0 44 24 ENE - 4,0 -
11.11.2019 23:00:00 17,0 15,0 41 22 NE - 8 -
11.11.2019 22:00:00 17,2 16,4 24 13 E 1005,4 7 0,0
11.11.2019 21:00:00 17,0 16,0 18 10 ENE - 7 -
11.11.2019 20:00:00 16,0 15,0 16 9 NNE - 5 -
11.11.2019 19:00:00 18,3 13,6 28 15 E 1006,7 10 -
11.11.2019 18:00:00 17,0 14,0 24 13 ENE - 10 -
11.11.2019 17:00:00 16,0 14,0 24 13 E - 6 -
11.11.2019 16:00:00 17,3 14,0 29 16 ENE 1008,5 10 0,0
11.11.2019 15:00:00 17,0 14,0 34 18 E - 10 -
11.11.2019 14:00:00 19,0 12,0 18 10 ENE - 10 -
11.11.2019 13:00:00 19,3 12,4 28 15 E 1010,8 10 -
11.11.2019 12:00:00 20,0 13,0 24 13 E - 10 -
11.11.2019 11:00:00 19,0 14,0 26 14 E - 10 -
11.11.2019 10:00:00 17,7 13,5 18 10 ENE 1013,7 15 0,0
11.11.2019 09:00:00 15,0 13,0 18 10 ENE - 10 -
11.11.2019 08:00:00 15,0 12,0 21 11 ENE - 10 -
11.11.2019 07:00:00 14,3 11,3 15 8 ENE 1013,5 15 -
11.11.2019 06:00:00 13,0 11,0 18 10 ENE - 10 -
11.11.2019 05:00:00 14,0 11,0 15 8 ENE - 10 -
11.11.2019 04:00:00 13,6 10,7 16 9 ENE 1014,0 10 0,0
11.11.2019 03:00:00 13,0 10,0 16 9 NE - 10 -
11.11.2019 02:00:00 12,0 11,0 15 8 NE - 10 -
11.11.2019 01:00:00 12,3 10,2 16 9 NE 1014,7 10 -
11.11.2019 00:00:00 12,0 10,0 13 7 NE - 10 -
10.11.2019 23:00:00 12,0 10,0 15 8 ENE - 10 -
10.11.2019 22:00:00 12,1 10,3 11 6 NE 1014,6 10 0,0
10.11.2019 21:00:00 13,0 10,0 15 8 ENE - 10 -
10.11.2019 20:00:00 12,0 10,0 15 8 ENE - 10 -
10.11.2019 19:00:00 12,0 10,9 13 7 NE 1013,9 10 -
10.11.2019 18:00:00 13,0 12,0 9 5 ENE - 10 -
10.11.2019 17:00:00 15,0 13,0 9 5 E - 10 -
10.11.2019 16:00:00 17,8 10,7 9 5 OSO 1012,7 15 0,0
10.11.2019 15:00:00 18,0 11,0 15 8 OSO - 10 -
10.11.2019 14:00:00 16,0 13,0 11 6 SO - 10 -
10.11.2019 13:00:00 17,0 11,8 22 12 SSO 1012,4 10 -
10.11.2019 12:00:00 15,0 13,0 9 5 NNE - 10 -
10.11.2019 11:00:00 15,0 13,0 8 4 ONO - 10 -
10.11.2019 10:00:00 14,9 12,3 5 3 - 1012,5 10 0,0
10.11.2019 09:00:00 14,0 11,0 8 4 SE - 10 -
10.11.2019 08:00:00 12,0 11,0 8 4 N - 10 -
10.11.2019 07:00:00 14,0 9,6 13 7 SSO 1011,4 10 -
10.11.2019 06:00:00 12,0 10,0 5 3 ONO - 10 -
10.11.2019 05:00:00 13,0 10,0 16 9 O - 10 -
10.11.2019 04:00:00 13,9 11,0 26 14 O 1010,3 10 0,0
10.11.2019 03:00:00 16,0 10,0 24 13 OSO - 10 -
10.11.2019 02:00:00 15,0 11,0 29 16 O - 10 -
10.11.2019 01:00:00 16,2 8,6 21 11 SO 1010,2 10 -
10.11.2019 00:00:00 16,0 10,0 22 12 OSO - 10 -
09.11.2019 23:00:00 15,0 11,0 15 8 SO - 10 -
09.11.2019 22:00:00 13,2 11,3 4 2 S 1011,1 10 0,0
09.11.2019 21:00:00 13,0 11,0 4 2 - - 10 -
09.11.2019 20:00:00 13,0 13,0 5 3 S - 5 -
09.11.2019 19:00:00 13,9 13,3 5 3 S 1010,7 10 -
09.11.2019 18:00:00 15,0 13,0 15 8 O - 10 -
09.11.2019 17:00:00 15,0 14,0 8 4 ONO - 5 -
09.11.2019 16:00:00 15,1 11,5 26 14 SSO 1011,0 2,0 0,0
09.11.2019 15:00:00 18,0 12,0 5 3 - - 10 -
09.11.2019 14:00:00 20,0 14,0 8 4 O - 10 -
09.11.2019 13:00:00 20,6 13,9 8 4 O 1011,2 - -
09.11.2019 12:00:00 20,0 15,0 8 4 SO - 10 -
09.11.2019 11:00:00 21,0 14,0 13 7 OSO - 10 -
09.11.2019 10:00:00 19,3 13,6 8 4 E 1013,3 15 0,0
09.11.2019 09:00:00 14,0 13,0 9 5 E - 10 -
09.11.2019 08:00:00 13,0 12,0 9 5 ENE - 10 -
09.11.2019 07:00:00 10,4 10,1 9 5 E 1012,9 15 -
09.11.2019 06:00:00 10,0 10,0 11 6 ENE - 10 -
09.11.2019 05:00:00 10,0 10,0 11 6 E - 10 -
09.11.2019 04:00:00 10,8 10,0 9 5 E 1012,4 10 0,0
09.11.2019 03:00:00 11,0 10,0 9 5 NE - 10 -
09.11.2019 02:00:00 11,0 10,0 8 4 E - 10 -
09.11.2019 01:00:00 11,0 10,0 11 6 E 1012,8 10 -
09.11.2019 00:00:00 11,0 10,0 9 5 ENE - 10 -
08.11.2019 23:00:00 12,0 10,0 11 6 ENE - 10 -
08.11.2019 22:00:00 11,5 9,8 8 4 ENE 1012,8 10 0,0

tt = Temperatura
td = dewpoint
ff = velocità del vento
dd = direzione del vento
ppp = reduced air pressure
vv = visibility
rr = precipitazioni

Stazioni seguenti

WeatherPro
AMSI
MeteoEarth